ATLAS CENTAUR 2 DEB, 19638

Orbit data source: Space-Track

ATLAS CENTAUR 2 DEB, 19638 is space debris in LEO originally from a launch on Wed, 27 Nov 1963 UTC launched from the Air Force Eastern Test Range (AFETR). Debris objects in space refer to the collection of defunct objects orbiting the Earth. Examples of debris include non-operational satellites, rocket bodies, and fragments generated from explosions, collisions, or faulty payload assembly.

Loading next visibility...
Identifier
19638, 1963-047S
Orbit
LEO
Last TLE update
19 hours ago
Origin
Manufacturer
Unknown
Mission
Spacecraft
Bus & Motor
Unknown
Mass
Unknown
Launch date (UTC)
1963-11-27 (61 years ago)
Launch vehicle
Unknown
Launch site
Air Force Eastern Test Range (AFETR)
Object type
Payload
Rocket body
Debris
Shape & HBR
Unknown
Radar Cross Section
Small (<0.1 m²)

Expand to show TLE details & history

TLE from 19 hours ago
0 ATLAS CENTAUR 2 DEB
1 19638U 63047S   25128.42383528 -.00001863  00000-0 -48641-2 0  9995
2 19638  31.0087 145.0455 0686239 119.2205  19.5660 12.54198032523761
Epoch: 2025-05-08T10:10Z
Definitive object data (Epoch: 2025-05-08T10:10:19.368Z)
Latitude
18.71666°
Longitude
-88.13332°
Altitude
943.85 km
Speed
7.616 km/s
True Right ascension
19h 23m 46s
True Declination
18° 36' 54"
Sunlit
Object was in daylight at TLE epoch
Visualization TLE readout
Latitude
-17.92173°
Longitude
-25.08435°
Altitude
1,430.378 km
Speed
7.156 km/s
Apparent Right ascension
00h 27m 56s
Apparent Declination
-28° 36' 33"
Sunlit
Object is in daylight
Visualization observer readout
Local Sidereal Time
13:47:43
Azimuth
61.549° ENE
Elevation
-70.085°
Doppler factor
1
Orbital elements
Apogee altitude
1,987.627 km
Perigee altitude
913.177 km
Semi-major axis
7,828.539 km
Eccentricity
0.0686239
Inclination
31.0087°
RAAN
145.0455°
Arg. of periapsis
119.2205°
True anomaly
22.42897°
Mean anomaly
19.566°
Eccentric anomaly
20.97334°
Mean motion
3.13344 °/min
BSTAR
-0.0048641
Orbital period
114.89 mins
Loading maneuver chart data...
Loading SW <> Apogee altitude chart data...

ATLAS CENTAUR 2 DEB Visibility forecast

Observer location: undefined°, undefined°

Span
Click to sort rows by Start time (UTC) header in descending order
Start Az.
Max El. time (UTC)
Max El. Az.
Max El.
End time (UTC)
End Az.
11 mins2025-05-09 06:50:01.249Z243.236° WSW2025-05-09 06:56:01.249Z180.113° SSW32.093°2025-05-09 07:01:01.249Z115.785° SE
9 mins2025-05-09 08:53:01.249Z247.606° W2025-05-09 08:57:01.249Z201.499° SSW25.926°2025-05-09 09:02:01.249Z139.067° SSE
11 mins2025-05-10 03:42:01.249Z203.615° SW2025-05-10 03:48:01.249Z155.288° SSE22.259°2025-05-10 03:53:01.249Z110.943° ESE
|